Variabile
Variabile
Poco nuvoloso
Sereno
Sereno
Sereno
Sereno con velature
Sereno con stratificazioni
Sereno con stratificazioni
(°C)
25°
25°
24°
24°
23°
23°
22°
22°
21°
21°
20°
20°
19°
19°
18°
18°
18°
18°
(°C)
22°
21°
20°
20°
19°
18°
18°
17°
16°
NE
NE
ENE
ENE
NE
NNE
NNE
NE
NE
(km/h)
17-29
16-28
16-26
14-23
12-21
11-18
10-17
10-15
9-14
(mm)
0
0
0
0
0
0
0
0
0
(%)
0
0
0
0
0
0
0
0
0

Elevazione del sole

/ 32.1°
sun-icon
UV 5
03:20
20:17
Gibbosa crescente (119°)
15:50
23:02

METAR per 55.61°N 49.28°E (UWKD)

Ora Condizioni Temperatura/
Punto di rugiada
Vento Visibilità Meteo Nuvole Pressione Cambiamento Grezzo
VFR 25°C / 10°C 60º variable 030º to 110º 8kt 9700m - Clouds and Visibility OK 1017 No Significant change UWKD 161230Z 06004MPS 030V110 CAVOK 25/10 Q1017 R11/CLRD70 NOSIG RMK QFE753/1004
VFR 25°C / 11°C 60º variable 030º to 100º 10kt 9700m - Clouds and Visibility OK 1017 No Significant change UWKD 161200Z 06005MPS 030V100 CAVOK 25/11 Q1017 R11/CLRD70 NOSIG RMK QFE753/1004
VFR 25°C / 11°C 40º variable 010º to 080º 10kt 9700m - Clouds and Visibility OK 1017 No Significant change UWKD 161130Z 04005MPS 010V080 CAVOK 25/11 Q1017 R11/CLRD70 NOSIG RMK QFE753/1004
VFR 25°C / 11°C 70º variable 040º to 110º 10kt 9700m - Clouds and Visibility OK 1017 No Significant change UWKD 161100Z 07005MPS 040V110 CAVOK 25/11 Q1017 R11/70D NOSIG RMK QFE752/1003
VFR 25°C / 11°C 40º variable 360º to 090º 10kt 9700m - Clouds and Visibility OK 1017 No Significant change UWKD 161030Z 04005MPS 360V090 CAVOK 25/11 Q1017 R11/CLRD70 NOSIG RMK QFE753/1004
VFR 25°C / 10°C 20º 8kt Gust 17kt 9700m - Clouds and Visibility OK 1017 No Significant change UWKD 161000Z 02004G09MPS CAVOK 25/10 Q1017 R11/CLRD70 NOSIG RMK QFE753/1004
VFR 24°C / 10°C 60º variable 020º to 100º 10kt 9700m - Clouds and Visibility OK 1017 No Significant change UWKD 160930Z 06005MPS 020V100 CAVOK 24/10 Q1017 R11/CLRD70 NOSIG RMK QFE753/1004
VFR 24°C / 11°C 60º variable 010º to 100º 8kt 9700m - Scattered Clouds 4700ft 1017 No Significant change UWKD 160900Z 06004MPS 010V100 9999 SCT047 24/11 Q1017 R11/70D NOSIG RMK QFE753/1004
VFR 24°C / 11°C 40º variable 010º to 070º 10kt 9700m - Scattered Clouds 4700ft 1017 No Significant change UWKD 160830Z 04005MPS 010V070 9999 SCT047 24/11 Q1017 R11/70D NOSIG RMK QFE753/1004
VFR 24°C / 12°C 30º variable 330º to 090º 10kt 9700m - Scattered Clouds 4300ft 1018 No Significant change UWKD 160800Z 03005MPS 330V090 9999 SCT043 24/12 Q1018 R11/70D NOSIG RMK QFE753/1004
VFR 23°C / 11°C 50º variable 010º to 080º 10kt 9700m - Few Clouds 4300ft 1018 No Significant change UWKD 160730Z 05005MPS 010V080 9999 FEW043 23/11 Q1018 R11/CLRD70 NOSIG RMK QFE753/1004
VFR 23°C / 11°C 50º variable 360º to 080º 10kt 9700m - Clouds and Visibility OK 1017 No Significant change UWKD 160700Z 05005MPS 360V080 CAVOK 23/11 Q1017 R11/70D NOSIG RMK QFE753/1004
VFR 23°C / 12°C 40º variable 360º to 080º 10kt 9700m - Clouds and Visibility OK 1017 No Significant change UWKD 160630Z 04005MPS 360V080 CAVOK 23/12 Q1017 R11/70D NOSIG RMK QFE753/1004
VFR 23°C / 12°C 50º variable 020º to 080º 10kt 9700m - Clouds and Visibility OK 1017 No Significant change UWKD 160600Z 05005MPS 020V080 CAVOK 23/12 Q1017 R11/70D NOSIG RMK QFE753/1004
VFR 22°C / 12°C 30º variable 350º to 060º 8kt 9700m - Clouds and Visibility OK 1018 No Significant change UWKD 160530Z 03004MPS 350V060 CAVOK 22/12 Q1018 R11/70D NOSIG RMK QFE753/1004
VFR 22°C / 12°C 40º variable 360º to 070º 10kt 9700m - Clouds and Visibility OK 1017 No Significant change UWKD 160500Z 04005MPS 360V070 CAVOK 22/12 Q1017 R11/CLRD70 NOSIG RMK QFE753/1004
VFR 22°C / 12°C 40º variable 010º to 070º 8kt 9700m - Clouds and Visibility OK 1017 No Significant change UWKD 160430Z 04004MPS 010V070 CAVOK 22/12 Q1017 R11/CLRD70 NOSIG RMK QFE753/1004
VFR 20°C / 13°C 50º 8kt 9700m - Clouds and Visibility OK 1017 No Significant change UWKD 160400Z 05004MPS CAVOK 20/13 Q1017 R11/CLRD70 NOSIG RMK QFE753/1004
VFR 19°C / 13°C 40º 8kt 9700m - Clouds and Visibility OK 1017 No Significant change UWKD 160330Z 04004MPS CAVOK 19/13 Q1017 R11/CLRD70 NOSIG RMK QFE752/1003
VFR 19°C / 12°C 60º 8kt 9700m - Clouds and Visibility OK 1017 No Significant change UWKD 160300Z 06004MPS CAVOK 19/12 Q1017 R11/CLRD70 NOSIG RMK QFE752/1003
VFR 18°C / 12°C 60º 8kt 9700m - Clouds and Visibility OK 1017 No Significant change UWKD 160230Z 06004MPS CAVOK 18/12 Q1017 R11/CLRD70 NOSIG RMK QFE752/1003
VFR 18°C / 12°C 60º 8kt 9700m - Clouds and Visibility OK 1017 No Significant change UWKD 160200Z 06004MPS CAVOK 18/12 Q1017 R11/CLRD70 NOSIG RMK QFE752/1003
VFR 17°C / 12°C 40º 6kt 9700m - Clouds and Visibility OK 1016 No Significant change UWKD 160130Z 04003MPS CAVOK 17/12 Q1016 R11/70D NOSIG RMK QFE752/1003
VFR 17°C / 12°C 50º 6kt 9700m - Clouds and Visibility OK 1016 No Significant change UWKD 160100Z 05003MPS CAVOK 17/12 Q1016 R11/CLRD70 NOSIG RMK QFE752/1003

VFR

25°C / 10°C

[Più]
Vento 60º variable 030º to 110º 8kt
Visibilità 9700m
Meteo -
Nuvole Clouds and Visibility OK
Pressione 1017
Cambiamento No Significant change
Grezzo UWKD 161230Z 06004MPS 030V110 CAVOK 25/10 Q1017 R11/CLRD70 NOSIG RMK QFE753/1004

VFR

25°C / 11°C

[Più]
Vento 60º variable 030º to 100º 10kt
Visibilità 9700m
Meteo -
Nuvole Clouds and Visibility OK
Pressione 1017
Cambiamento No Significant change
Grezzo UWKD 161200Z 06005MPS 030V100 CAVOK 25/11 Q1017 R11/CLRD70 NOSIG RMK QFE753/1004

VFR

25°C / 11°C

[Più]
Vento 40º variable 010º to 080º 10kt
Visibilità 9700m
Meteo -
Nuvole Clouds and Visibility OK
Pressione 1017
Cambiamento No Significant change
Grezzo UWKD 161130Z 04005MPS 010V080 CAVOK 25/11 Q1017 R11/CLRD70 NOSIG RMK QFE753/1004

VFR

25°C / 11°C

[Più]
Vento 70º variable 040º to 110º 10kt
Visibilità 9700m
Meteo -
Nuvole Clouds and Visibility OK
Pressione 1017
Cambiamento No Significant change
Grezzo UWKD 161100Z 07005MPS 040V110 CAVOK 25/11 Q1017 R11/70D NOSIG RMK QFE752/1003

VFR

25°C / 11°C

[Più]
Vento 40º variable 360º to 090º 10kt
Visibilità 9700m
Meteo -
Nuvole Clouds and Visibility OK
Pressione 1017
Cambiamento No Significant change
Grezzo UWKD 161030Z 04005MPS 360V090 CAVOK 25/11 Q1017 R11/CLRD70 NOSIG RMK QFE753/1004

VFR

25°C / 10°C

[Più]
Vento 20º 8kt Gust 17kt
Visibilità 9700m
Meteo -
Nuvole Clouds and Visibility OK
Pressione 1017
Cambiamento No Significant change
Grezzo UWKD 161000Z 02004G09MPS CAVOK 25/10 Q1017 R11/CLRD70 NOSIG RMK QFE753/1004

VFR

24°C / 10°C

[Più]
Vento 60º variable 020º to 100º 10kt
Visibilità 9700m
Meteo -
Nuvole Clouds and Visibility OK
Pressione 1017
Cambiamento No Significant change
Grezzo UWKD 160930Z 06005MPS 020V100 CAVOK 24/10 Q1017 R11/CLRD70 NOSIG RMK QFE753/1004

VFR

24°C / 11°C

[Più]
Vento 60º variable 010º to 100º 8kt
Visibilità 9700m
Meteo -
Nuvole Scattered Clouds 4700ft
Pressione 1017
Cambiamento No Significant change
Grezzo UWKD 160900Z 06004MPS 010V100 9999 SCT047 24/11 Q1017 R11/70D NOSIG RMK QFE753/1004

VFR

24°C / 11°C

[Più]
Vento 40º variable 010º to 070º 10kt
Visibilità 9700m
Meteo -
Nuvole Scattered Clouds 4700ft
Pressione 1017
Cambiamento No Significant change
Grezzo UWKD 160830Z 04005MPS 010V070 9999 SCT047 24/11 Q1017 R11/70D NOSIG RMK QFE753/1004

VFR

24°C / 12°C

[Più]
Vento 30º variable 330º to 090º 10kt
Visibilità 9700m
Meteo -
Nuvole Scattered Clouds 4300ft
Pressione 1018
Cambiamento No Significant change
Grezzo UWKD 160800Z 03005MPS 330V090 9999 SCT043 24/12 Q1018 R11/70D NOSIG RMK QFE753/1004

VFR

23°C / 11°C

[Più]
Vento 50º variable 010º to 080º 10kt
Visibilità 9700m
Meteo -
Nuvole Few Clouds 4300ft
Pressione 1018
Cambiamento No Significant change
Grezzo UWKD 160730Z 05005MPS 010V080 9999 FEW043 23/11 Q1018 R11/CLRD70 NOSIG RMK QFE753/1004

VFR

23°C / 11°C

[Più]
Vento 50º variable 360º to 080º 10kt
Visibilità 9700m
Meteo -
Nuvole Clouds and Visibility OK
Pressione 1017
Cambiamento No Significant change
Grezzo UWKD 160700Z 05005MPS 360V080 CAVOK 23/11 Q1017 R11/70D NOSIG RMK QFE753/1004

VFR

23°C / 12°C

[Più]
Vento 40º variable 360º to 080º 10kt
Visibilità 9700m
Meteo -
Nuvole Clouds and Visibility OK
Pressione 1017
Cambiamento No Significant change
Grezzo UWKD 160630Z 04005MPS 360V080 CAVOK 23/12 Q1017 R11/70D NOSIG RMK QFE753/1004

VFR

23°C / 12°C

[Più]
Vento 50º variable 020º to 080º 10kt
Visibilità 9700m
Meteo -
Nuvole Clouds and Visibility OK
Pressione 1017
Cambiamento No Significant change
Grezzo UWKD 160600Z 05005MPS 020V080 CAVOK 23/12 Q1017 R11/70D NOSIG RMK QFE753/1004

VFR

22°C / 12°C

[Più]
Vento 30º variable 350º to 060º 8kt
Visibilità 9700m
Meteo -
Nuvole Clouds and Visibility OK
Pressione 1018
Cambiamento No Significant change
Grezzo UWKD 160530Z 03004MPS 350V060 CAVOK 22/12 Q1018 R11/70D NOSIG RMK QFE753/1004

VFR

22°C / 12°C

[Più]
Vento 40º variable 360º to 070º 10kt
Visibilità 9700m
Meteo -
Nuvole Clouds and Visibility OK
Pressione 1017
Cambiamento No Significant change
Grezzo UWKD 160500Z 04005MPS 360V070 CAVOK 22/12 Q1017 R11/CLRD70 NOSIG RMK QFE753/1004

VFR

22°C / 12°C

[Più]
Vento 40º variable 010º to 070º 8kt
Visibilità 9700m
Meteo -
Nuvole Clouds and Visibility OK
Pressione 1017
Cambiamento No Significant change
Grezzo UWKD 160430Z 04004MPS 010V070 CAVOK 22/12 Q1017 R11/CLRD70 NOSIG RMK QFE753/1004

VFR

20°C / 13°C

[Più]
Vento 50º 8kt
Visibilità 9700m
Meteo -
Nuvole Clouds and Visibility OK
Pressione 1017
Cambiamento No Significant change
Grezzo UWKD 160400Z 05004MPS CAVOK 20/13 Q1017 R11/CLRD70 NOSIG RMK QFE753/1004

VFR

19°C / 13°C

[Più]
Vento 40º 8kt
Visibilità 9700m
Meteo -
Nuvole Clouds and Visibility OK
Pressione 1017
Cambiamento No Significant change
Grezzo UWKD 160330Z 04004MPS CAVOK 19/13 Q1017 R11/CLRD70 NOSIG RMK QFE752/1003

VFR

19°C / 12°C

[Più]
Vento 60º 8kt
Visibilità 9700m
Meteo -
Nuvole Clouds and Visibility OK
Pressione 1017
Cambiamento No Significant change
Grezzo UWKD 160300Z 06004MPS CAVOK 19/12 Q1017 R11/CLRD70 NOSIG RMK QFE752/1003

VFR

18°C / 12°C

[Più]
Vento 60º 8kt
Visibilità 9700m
Meteo -
Nuvole Clouds and Visibility OK
Pressione 1017
Cambiamento No Significant change
Grezzo UWKD 160230Z 06004MPS CAVOK 18/12 Q1017 R11/CLRD70 NOSIG RMK QFE752/1003

VFR

18°C / 12°C

[Più]
Vento 60º 8kt
Visibilità 9700m
Meteo -
Nuvole Clouds and Visibility OK
Pressione 1017
Cambiamento No Significant change
Grezzo UWKD 160200Z 06004MPS CAVOK 18/12 Q1017 R11/CLRD70 NOSIG RMK QFE752/1003

VFR

17°C / 12°C

[Più]
Vento 40º 6kt
Visibilità 9700m
Meteo -
Nuvole Clouds and Visibility OK
Pressione 1016
Cambiamento No Significant change
Grezzo UWKD 160130Z 04003MPS CAVOK 17/12 Q1016 R11/70D NOSIG RMK QFE752/1003

VFR

17°C / 12°C

[Più]
Vento 50º 6kt
Visibilità 9700m
Meteo -
Nuvole Clouds and Visibility OK
Pressione 1016
Cambiamento No Significant change
Grezzo UWKD 160100Z 05003MPS CAVOK 17/12 Q1016 R11/CLRD70 NOSIG RMK QFE752/1003

TAF per 55.61°N 49.28°E (UWKD)

From till


Maximum Temperature 27ºC on . Minimum Temperature 17ºC on .
From till Wind 50º 10kt. Visibility 9700m. Scattered Clouds 3000ft.
Becoming from till

Grezzo: TAF UWKD 161056Z 1612/1712 05005MPS 9999 SCT030 TX27/1612Z TN17/1701Z BECMG 1618/1619 36003MPS

Radar e nowcasting per 55.61°N 49.28°E

Pioviggine
Lieve
Moderato
Forte
Molto forte
Grandine

Il segnaposto è situato a 55.61°N 49.28°E. Questa animazione mostra il radar delle precipitazioni per l'intervallo di tempo selezionato, nonché una previsione di 2h. Le croci arancioni indicano i fulmini. Dati forniti da nowcast.de (disponibili in USA, Europa e Australia). La pioviggine o una leggera nevicata potrebbero essere invisibili per il radar. L'intensità delle precipitazioni è codificata a colori, che vanno dal turchese al rosso.

Tempo in atto per 55.61°N 49.28°E: immagine satellitare e pioggia

Il segnaposto è situato a 55.61°N 49.28°E. [Più]

L'immagine satellitare in tempo reale combina la luce visibile durante il giorno con la radiazione infrarossa durante la notte. Di notte l'immagine non è scura poiché i raggi infrarossi possono rilevare differenze di temperatura. Purtroppo, le nuvole basse e la nebbia sono difficili da distinguere dalla temperatura del suolo e possono pertanto essere quasi invisibili durante la notte. Le immagini satellitari Meteosat per l'Europa vengono aggiornate in tempo reale ogni 5 minuti. Le immagini GOES-16 / GOES-17 (Nord e Sud America) e Himawari (Asia) vengono aggiornate ogni 10 minuti.

Le precipitazioni sono stimate da radar e satelliti. I calcoli delle precipitazioni dai satelliti sono meno accurati di notte che durante il giorno.

© 2024 meteoblue, NOAA Satellites GOES-16 and EUMETSAT. Fulminazioni fornite da nowcast.

Tornare su
×
Salve,
sembra che stiate usando un blocco degli annunci.

La pubblicità è essenziale per mantenere il nostro sito Web gratuito con dettagli e accuratezza unici.

Si prega di inserire www.meteoblue.com nella whitelist del vostro blocco degli annunci o di considerare l'acquisto di uno dei nostri prodotti:

Avete già un abbonamento?
Allora per favore eseguite il login.